Regional Weather Roundup
Issued by NWS

Home | Current Version | Previous Version | Text Only | Print | Product List | Glossary Off
Versions: 1 2 3 4 5 6 7 8 9 10 11 12 13 14 15 16 17 18 19 20 21 22 23 24 25 26 27 28 29 30 31 32 33 34 35 36 37 38 39 40 41 42 43 44 45 46 47 48 49 50

000
ASUS45 KBOU 250007
RWRCO

WEATHER ROUNDUP FOR COLORADO
NATIONAL WEATHER SERVICE DENVER/BOULDER CO
600 PM MDT SUN JUL 24 2016

NOTE: "FAIR" INDICATES FEW OR NO CLOUDS BELOW 12000 FEET WITH NO
SIGNIFICANT WEATHER AND/OR OBSTRUCTIONS TO VISIBILITY.

COZ001>005-013-030-031-250100-
...NORTHWEST COLORADO...

CITY           SKY/WX    TMP DP  RH WIND       PRES   REMARKS
CRAIG          FAIR      92  17   6 NW5G17    30.15F
HAYDEN         FAIR      84  37  18 SE13      30.20F
MEEKER         FAIR      87  39  18 SE6       30.17F
MOUNT WERNER   NOT AVBL
STEAMBOAT SPGS FAIR      80  39  23 E9        30.26S
WALDEN         FAIR      70  36  28 S12G17    30.37S
$$

COZ006>008-011-250100-
...WEST CENTRAL VALLEYS...

CITY           SKY/WX    TMP DP  RH WIND       PRES   REMARKS
GRAND JUNCTION FAIR      98  27   8 W5        30.01F
MONTROSE       FAIR      93  33  12 VRB6      30.14S
EAGLE          MOSUNNY   81  39  22 SE16G24   30.24F
RIFLE          FAIR      93  30  10 NW5       30.08F
DELTA          FAIR      92  36  13 E9        30.08F
NUCLA          FAIR     N/A N/A N/A N6        30.17F
$$

COZ017>023-064>068-250100-
...SOUTHWEST COLORADO...

CITY           SKY/WX    TMP DP  RH WIND       PRES   REMARKS
DURANGO        FAIR      81  42  25 E7        30.21F
CORTEZ         FAIR      91  40  16 N14       30.13S
PAGOSA SPRINGS FAIR      80  31  17 NW9G17    30.32F
TELLURIDE      PTSUNNY   72  36  27 SW9       30.49R
WOLF CREEK PAS PTSUNNY   55  34  44 N3        30.71S
$$

COZ009-010-012-014-032>034-037-058>063-250100-
...CENTRAL COLORADO...

CITY           SKY/WX    TMP DP  RH WIND       PRES   REMARKS
ASPEN          PTSUNNY   81  33  17 SE3       30.30F
BUENA VISTA    FAIR      79  35  20 SE5       30.31R
COPPER MTN     FAIR      63  32  31 NW16G25   30.69S
BERTHOUD PASS  FAIR      46  32  57 N15G44    30.74R
COTTONWOOD PAS FAIR      73  32  21 E12G22    30.48S
GUNNISON       FAIR      79  36  21 SW6       30.31F
KREMMLING      FAIR      70  45  40 CALM      30.36F
LEADVILLE      FAIR      70  22  16 NW14G20   30.48F
MONARCH PASS   PTSUNNY   61  28  29 MISG      30.77F
SALIDA         FAIR      83  42  23 SE18G28   30.33F
SUNLIGHT       PTSUNNY   66  37  34 N5        30.62S
WILKERSON PASS FAIR      61  32  33 SE6       30.63F
$$

COZ069>075-250100-
...SAN LUIS VALLEY/SANGRE DE CRISTO MOUNTAINS...

CITY           SKY/WX    TMP DP  RH WIND       PRES   REMARKS
ALAMOSA        FAIR      82  36  19 W10       30.28F
LA VETA PASS   FAIR      63  45  51 NE12G17   30.53F
SAGUACHE       FAIR      81  37  21 W7        30.29F
$$

COZ035-036-038>040-250100-
...NORTHERN COLORADO FRONT RANGE...

CITY           SKY/WX    TMP DP  RH WIND       PRES   REMARKS
DENVER INTL AP PTSUNNY   73  47  39 E23G32    30.14R
DMNS CITY PARK   N/A     74  52  47 NE12G22   30.14S
AURORA         MOSUNNY   71  57  61 NE17G24   30.16R
FRONT RANGE AP PTSUNNY   72  52  49 NE13G32   30.18R
ERIE MUNI ARPT FAIR      82  52  34 E12       30.13R
BOULDER MUN AP FAIR      81  55  41 E6        30.13S
CENTENNIAL     FAIR      79  51  37 N16G31    30.18R
BROOMFIELD     PTSUNNY   84  54  34 E13       30.16F
LONGMONT       FAIR      79  55  42 E5        30.14R
$$

COZ041-046-047-076>085-087-088-250100-
...PIKES PEAK/PALMER DIVIDE AND SOUTHERN FOOTHILLS...

CITY           SKY/WX    TMP DP  RH WIND       PRES   REMARKS
COLO. SPRINGS  PTSUNNY   84  44  24 S10       30.21R
A. F. ACADEMY  FAIR      83  39  21 SE9       30.22S
SCHRIEVER AFB  NOT AVBL
ELLICOTT       FAIR     N/A N/A N/A SE5       30.20R THUNDER
FALCON         FAIR      82  38  21 S6        30.27R
FORT CARSON    NOT AVBL
LIMON          FAIR      74  58  57 S18G31    30.18R
MONUMENT HILL  FAIR      77  43  29 S3        30.29R
TRINIDAD       NOT AVBL
$$

COZ042>045-048>051-090-091-250100-
...NORTHEAST COLORADO...

CITY           SKY/WX    TMP DP  RH WIND       PRES   REMARKS
GREELEY ARPT   FAIR      73  57  56 E13       30.13F
AKRON          FAIR      80  57  45 E10       30.16R
BURLINGTON     FAIR      87  59  38 E15       30.08R
WRAY           NOT AVBL
STERLING       TSTM      64  59  82 N32G58    30.15R
HOLYOKE        FAIR      81  55  41 W14       30.13R
FORT MORGAN    TSTM      60  57  89 S38G46    30.28R
$$

COZ086-089-092>099-250100-
...SOUTHEAST COLORADO...

CITY           SKY/WX    TMP DP  RH WIND       PRES   REMARKS
PUEBLO         FAIR      82  55  39 NE14      30.09F
LA JUNTA       FAIR      88  60  38 S17       30.06R
LAMAR          FAIR      91  61  36 S14       30.02R
SPRINGFIELD      N/A     82  55  39 S5        30.07F
$$



USA.gov is the U.S. government's official web portal to all federal, state and local government web resources and services.